Mora, MN

3:18 AM CDT on June 28, 2017 (GMT -0500)
Mora Municipal

Weather History for KJMR - October, 2011

Change the Weather History Date:

Sunday, October 9, 2011

  Actual Average Record
Temperature  
Mean Temperature 66 °F -  
Max Temperature 77 °F 56 °F 81 °F (1938)
Min Temperature 55 °F 34 °F 15 °F (2000)
Cooling Degree Days 1    
Growing Degree Days 16 (Base 50)    
Moisture  
Dew Point 55 °F    
Average Humidity 78    
Maximum Humidity 100    
Minimum Humidity 39    
Precipitation  
Precipitation 0.40 in - - ()
Sea Level Pressure  
Sea Level Pressure 30.20 in    
Wind  
Wind Speed 1 mph (East)    
Max Wind Speed 8 mph    
Max Gust Speed -    
Visibility 9 miles    
Events Rain    
Averages and records for this station are not official NWS values.
T = Trace of Precipitation, MM = Missing Value Source: NWS Daily Summary

Daily Weather History Graph

Daily Weather History Graph

Search for Another Location

Airport or City:

Trip Planner

Search our weather history database for the weather conditions in past years. The results will help you decide how hot, cold, wet, or windy it might be!

Date:

Astronomy

Oct. 09, 2011 Rise Set
Actual Time 7:21 AM CDT 6:38 PM CDT
Civil Twilight 6:51 AM CDT 7:08 PM CDT
Nautical Twilight 6:17 AM CDT 7:42 PM CDT
Astronomical Twilight 5:42 AM CDT 8:17 PM CDT
Moon 5:18 PM CDT (10/9) 5:01 AM CDT (10/9)
Length of Visible Light 12h 16m
Length of Day
11h 16m
Waxing Gibbous, 95% of the Moon is Illuminated
Oct 9
Waxing Gibbous
Oct 11
Full
Oct 19
Last Quarter
Oct 26
New
Nov 2
First Quarter

Hourly Weather History & Observations

Time (CDT) Temp. Dew Point Humidity Pressure Visibility Wind Dir Wind Speed Gust Speed Precip Events Conditions
12:19 AM 60.8 °F 55.4 °F 82% 30.15 in 10.0 mi Calm Calm - 0.02 in Rain Light Rain
12:39 AM 60.8 °F 55.4 °F 82% 30.17 in 10.0 mi Calm Calm - 0.02 in Rain Light Rain
12:54 AM 59.0 °F 55.4 °F 88% 30.17 in 7.0 mi Calm Calm - 0.03 in Rain Rain
1:00 AM 59.0 °F 55.4 °F 88% 30.17 in 7.0 mi Calm Calm - 0.01 in Rain Light Rain
1:19 AM 59.0 °F 55.4 °F 88% 30.18 in 10.0 mi Calm Calm - 0.01 in   Drizzle
1:39 AM 59.0 °F 55.4 °F 88% 30.18 in 10.0 mi Calm Calm - 0.01 in   Light Drizzle
1:55 AM 59.0 °F 55.4 °F 88% 30.18 in 10.0 mi Calm Calm - 0.01 in   Light Drizzle
1:59 AM 59.0 °F 55.4 °F 88% 30.18 in 10.0 mi Calm Calm - N/A   Light Drizzle
2:39 AM 59.0 °F 55.4 °F 88% 30.19 in 10.0 mi Calm Calm - 0.01 in Rain Light Rain
2:55 AM 59.0 °F 55.4 °F 88% 30.19 in 7.0 mi Calm Calm - 0.03 in Rain Rain
2:59 AM 59.0 °F 55.4 °F 88% 30.19 in 4.0 mi Calm Calm - 0.02 in Rain Heavy Rain
3:19 AM 59.0 °F 55.4 °F 88% 30.20 in 5.0 mi Calm Calm - 0.04 in Rain Light Rain
3:39 AM 59.0 °F 55.4 °F 88% 30.19 in 10.0 mi Calm Calm - 0.05 in   Light Drizzle
3:55 AM 59.0 °F 55.4 °F 88% 30.19 in 4.0 mi Calm Calm - 0.11 in Rain Heavy Rain
3:59 AM 59.0 °F 55.4 °F 88% 30.20 in 3.0 mi Calm Calm - 0.01 in Rain Rain
4:19 AM 59.0 °F 55.4 °F 88% 30.21 in 7.0 mi Calm Calm - 0.03 in Rain Rain
4:39 AM 57.2 °F 55.4 °F 94% 30.20 in 4.0 mi Calm Calm - 0.13 in Rain Rain
4:55 AM 55.4 °F 55.4 °F 100% 30.20 in 7.0 mi Calm Calm - 0.16 in Rain Light Rain
4:59 AM 55.4 °F 55.4 °F 100% 30.20 in 7.0 mi Calm Calm - N/A Rain Light Rain
5:20 AM 55.4 °F 55.4 °F 100% 30.21 in 10.0 mi Calm Calm - N/A Rain Light Rain
5:39 AM 55.4 °F 55.4 °F 100% 30.22 in 10.0 mi Calm Calm - N/A Rain Rain
5:55 AM 55.4 °F 55.4 °F 100% 30.22 in 10.0 mi Calm Calm - 0.01 in Rain Rain
5:59 AM 55.4 °F 55.4 °F 100% 30.22 in 7.0 mi Calm Calm - 0.01 in Rain Rain
6:19 AM 55.4 °F 55.4 °F 100% 30.22 in 7.0 mi Calm Calm - 0.02 in Rain Light Rain
6:39 AM 55.4 °F 55.4 °F 100% 30.22 in 10.0 mi Calm Calm - 0.04 in Rain Rain
6:55 AM 55.4 °F 55.4 °F 100% 30.22 in 10.0 mi Calm Calm - 0.04 in   Overcast
7:19 AM 55.4 °F 55.4 °F 100% 30.22 in 10.0 mi Calm Calm - N/A   Overcast
7:39 AM 55.4 °F 53.6 °F 94% 30.22 in 10.0 mi Calm Calm - N/A   Overcast
8:19 AM 55.4 °F 53.6 °F 94% 30.23 in 10.0 mi Calm Calm - 0.01 in   Overcast
8:39 AM 55.4 °F 55.4 °F 100% 30.24 in 10.0 mi NE 3.5 mph - 0.01 in   Overcast
8:59 AM 55.4 °F 55.4 °F 100% 30.24 in 10.0 mi NE 3.5 mph - N/A   Overcast
9:19 AM 55.4 °F 55.4 °F 100% 30.24 in 10.0 mi Calm Calm - N/A   Overcast
9:39 AM 59.0 °F 55.4 °F 88% 30.25 in 10.0 mi NNE 3.5 mph - N/A   Overcast
9:59 AM 60.8 °F 57.2 °F 88% 30.25 in 10.0 mi ENE 3.5 mph - N/A   Mostly Cloudy
10:19 AM 62.6 °F 57.2 °F 82% 30.25 in 10.0 mi NE 4.6 mph - N/A   Scattered Clouds
10:39 AM 62.6 °F 57.2 °F 82% 30.25 in 10.0 mi Calm Calm - N/A   Clear
11:19 AM 64.4 °F 59.0 °F 83% 30.25 in 10.0 mi Calm Calm - N/A   Mostly Cloudy
11:39 AM 64.4 °F 57.2 °F 77% 30.24 in 10.0 mi Calm Calm - N/A   Mostly Cloudy
11:59 AM 64.4 °F 59.0 °F 83% 30.24 in 10.0 mi East 3.5 mph - N/A   Mostly Cloudy
12:39 PM 68.0 °F 59.0 °F 73% 30.23 in 10.0 mi East 3.5 mph - N/A   Scattered Clouds
12:59 PM 69.8 °F 59.0 °F 68% 30.22 in 10.0 mi East 6.9 mph - N/A   Scattered Clouds
1:19 PM 69.8 °F 57.2 °F 64% 30.21 in 10.0 mi ENE 8.1 mph - N/A   Scattered Clouds
1:39 PM 73.4 °F 57.2 °F 57% 30.20 in 10.0 mi ESE 5.8 mph - N/A   Scattered Clouds
1:59 PM 69.8 °F 55.4 °F 60% 30.19 in 10.0 mi East 5.8 mph - N/A   Scattered Clouds
2:19 PM 73.4 °F 55.4 °F 53% 30.19 in 10.0 mi East 4.6 mph - N/A   Mostly Cloudy
2:39 PM 73.4 °F 53.6 °F 50% 30.18 in 10.0 mi Calm Calm - N/A   Scattered Clouds
2:59 PM 75.2 °F 55.4 °F 50% 30.17 in 10.0 mi SE 3.5 mph - N/A   Scattered Clouds
3:19 PM 75.2 °F 53.6 °F 47% 30.17 in 10.0 mi Calm Calm - N/A   Clear
3:39 PM 75.2 °F 53.6 °F 47% 30.16 in 10.0 mi Calm Calm - N/A   Clear
3:59 PM 75.2 °F 53.6 °F 47% 30.16 in 10.0 mi Calm Calm - N/A   Clear
4:19 PM 75.2 °F 53.6 °F 47% 30.15 in 10.0 mi South 3.5 mph - N/A   Scattered Clouds
4:39 PM 75.2 °F 53.6 °F 47% 30.15 in 10.0 mi Calm Calm - N/A   Clear
4:59 PM 75.2 °F 51.8 °F 44% 30.14 in 10.0 mi South 4.6 mph - N/A   Clear
5:19 PM 77.0 °F 50.0 °F 39% 30.14 in 10.0 mi South 4.6 mph - N/A   Scattered Clouds
5:39 PM 75.2 °F 50.0 °F 41% 30.14 in 10.0 mi SSE 3.5 mph - N/A   Mostly Cloudy
5:59 PM 73.4 °F 50.0 °F 44% 30.14 in 10.0 mi Calm Calm - N/A   Scattered Clouds
6:19 PM 73.4 °F 50.0 °F 44% 30.14 in 10.0 mi Calm Calm - N/A   Scattered Clouds
6:39 PM 69.8 °F 51.8 °F 53% 30.14 in 10.0 mi ESE 4.6 mph - N/A   Clear
6:59 PM 68.0 °F 51.8 °F 56% 30.14 in 10.0 mi Calm Calm - N/A   Clear
7:18 PM 69.8 °F 50.0 °F 49% 30.15 in 10.0 mi Calm Calm - N/A   Clear
7:39 PM 66.2 °F 48.2 °F 52% 30.15 in 10.0 mi Calm Calm - N/A   Clear
7:59 PM 64.4 °F 55.4 °F 73% 30.15 in 10.0 mi ENE 4.6 mph - N/A   Clear
8:19 PM 62.6 °F 55.4 °F 77% 30.15 in 10.0 mi ENE 3.5 mph - N/A   Clear
8:39 PM 60.8 °F 53.6 °F 77% 30.15 in 10.0 mi Calm Calm - N/A   Clear
8:59 PM 59.0 °F 51.8 °F 77% 30.15 in 10.0 mi Calm Calm - N/A   Clear
9:39 PM 55.4 °F 51.8 °F 88% 30.15 in 10.0 mi ENE 3.5 mph - N/A   Clear
9:59 PM 55.4 °F 50.0 °F 82% 30.16 in 10.0 mi Calm Calm - N/A   Clear
10:19 PM 55.4 °F 50.0 °F 82% 30.16 in 10.0 mi Calm Calm - N/A   Clear
10:39 PM 55.4 °F 51.8 °F 88% 30.16 in 10.0 mi Calm Calm - N/A   Clear
10:59 PM 53.6 °F 50.0 °F 88% 30.16 in 10.0 mi Calm Calm - N/A   Clear
11:19 PM 53.6 °F 48.2 °F 82% 30.16 in 10.0 mi Calm Calm - N/A   Clear
11:39 PM 53.6 °F 50.0 °F 88% 30.16 in 10.0 mi Calm Calm - N/A   Clear
11:59 PM 53.6 °F 50.0 °F 88% 30.16 in 10.0 mi Calm Calm - N/A   Clear